When you browse on this site, cookies collect data to enhance your experience and personalize the content and advertising you see.
Visit our Privacy Policy to learn more. By continuing to use the site, you agree to this use of cookies and data.
  • Em Portugal
  • Lista de países
  • Para 7 dias
  • Temperatura da água
  • Mapa do tempo
  • Widgets de tempo
  • user-avatar
    Iniciar Sessão

    Previsão horária em Lloret de Mar

    Hoje, 22 Agosto, Quinta-feira

    Tempo Temperatura Precipitação Vento Pressão Humidade
    00:00 +24°C° 0 mm 2 m/s 762 mmHg 70%
    01:00 +23°C° 0 mm 2 m/s 762 mmHg 67%
    02:00 +23°C° 0 mm 2 m/s 762 mmHg 65%
    03:00 +22°C° 0 mm 3 m/s 761 mmHg 62%
    04:00 +23°C° 0 mm 2 m/s 761 mmHg 63%
    05:00 +23°C° 0 mm 2 m/s 762 mmHg 64%
    06:00 +23°C° 0 mm 1 m/s 762 mmHg 66%
    07:00 +26°C° 0 mm 2 m/s 762 mmHg 55%
    08:00 +28°C° 0 mm 2 m/s 762 mmHg 45%
    09:00 +31°C° 0 mm 2 m/s 762 mmHg 34%
    10:00 +32°C° 0 mm 2 m/s 762 mmHg 34%
    11:00 +33°C° 0 mm 3 m/s 762 mmHg 33%
    12:00 +33°C° 0 mm 3 m/s 762 mmHg 32%
    13:00 +33°C° 0 mm 3 m/s 762 mmHg 35%
    14:00 +33°C° 0 mm 3 m/s 762 mmHg 37%
    15:00 +31°C° 0 mm 2 m/s 762 mmHg 40%
    16:00 +30°C° 0 mm 2 m/s 761 mmHg 46%
    17:00 +29°C° 0 mm 2 m/s 761 mmHg 52%
    18:00 +27°C° 0 mm 2 m/s 761 mmHg 58%
    19:00 +26°C° 0 mm 2 m/s 762 mmHg 61%
    20:00 +25°C° 0 mm 2 m/s 762 mmHg 63%
    21:00 +24°C° 0 mm 2 m/s 762 mmHg 65%
    22:00 +23°C° 0 mm 2 m/s 762 mmHg 62%
    23:00 +23°C° 0 mm 2 m/s 762 mmHg 59%

    Amanhã, 23 Agosto, Sexta-feira

    Tempo Temperatura Precipitação Vento Pressão Humidade
    00:00 +23°C° 0 mm 2 m/s 762 mmHg 55%
    01:00 +23°C° 0 mm 2 m/s 762 mmHg 53%
    02:00 +23°C° 0 mm 2 m/s 762 mmHg 50%
    03:00 +21°C° 0 mm 2 m/s 762 mmHg 48%
    04:00 +23°C° 0 mm 2 m/s 762 mmHg 48%
    05:00 +23°C° 0 mm 2 m/s 762 mmHg 47%
    06:00 +23°C° 0 mm 2 m/s 762 mmHg 47%
    07:00 +26°C° 0 mm 2 m/s 762 mmHg 44%
    08:00 +29°C° 0 mm 2 m/s 762 mmHg 40%
    09:00 +32°C° 0 mm 1 m/s 763 mmHg 37%
    10:00 +32°C° 0 mm 2 m/s 762 mmHg 36%
    11:00 +34°C° 0 mm 2 m/s 762 mmHg 35%
    12:00 +35°C° 0 mm 3 m/s 762 mmHg 34%
    13:00 +34°C° 0 mm 2 m/s 761 mmHg 37%
    14:00 +34°C° 0 mm 2 m/s 761 mmHg 40%
    15:00 +32°C° 0 mm 2 m/s 761 mmHg 44%
    16:00 +30°C° 0 mm 2 m/s 761 mmHg 50%
    17:00 +29°C° 0 mm 2 m/s 761 mmHg 57%
    18:00 +27°C° 0 mm 2 m/s 760 mmHg 64%
    19:00 +26°C° 0 mm 2 m/s 761 mmHg 67%
    20:00 +25°C° 0 mm 2 m/s 761 mmHg 71%
    21:00 +24°C° 0 mm 2 m/s 761 mmHg 74%
    22:00 +24°C° 0 mm 2 m/s 761 mmHg 73%
    23:00 +24°C° 0 mm 1 m/s 761 mmHg 71%

    Depois de amanhã, 24 Agosto, Sábado

    Tempo Temperatura Precipitação Vento Pressão Humidade
    00:00 +24°C° 0 mm 1 m/s 761 mmHg 70%
    01:00 +24°C° 0 mm 1 m/s 761 mmHg 69%
    02:00 +23°C° 0 mm 1 m/s 761 mmHg 69%
    03:00 +23°C° 0 mm 1 m/s 761 mmHg 68%
    04:00 +24°C° 0 mm 1 m/s 761 mmHg 67%
    05:00 +24°C° 0 mm 1 m/s 761 mmHg 66%
    06:00 +24°C° 0 mm 1 m/s 761 mmHg 65%
    07:00 +27°C° 0 mm 1 m/s 761 mmHg 57%
    08:00 +29°C° 0 mm 1 m/s 761 mmHg 49%
    09:00 +32°C° 0 mm 1 m/s 761 mmHg 41%
    10:00 +34°C° 0 mm 2 m/s 761 mmHg 39%
    11:00 +34°C° 0 mm 2 m/s 761 mmHg 37%
    12:00 +35°C° 0 mm 3 m/s 761 mmHg 34%
    13:00 +35°C° 0 mm 3 m/s 761 mmHg 36%
    14:00 +35°C° 0 mm 3 m/s 760 mmHg 37%
    15:00 +34°C° 0 mm 4 m/s 760 mmHg 38%
    16:00 +33°C° 0 mm 3 m/s 760 mmHg 44%
    17:00 +30°C° 0 mm 3 m/s 760 mmHg 50%
    18:00 +28°C° 0 mm 2 m/s 760 mmHg 55%
    19:00 +27°C° 0 mm 2 m/s 760 mmHg 57%
    20:00 +26°C° 0 mm 2 m/s 760 mmHg 59%
    21:00 +25°C° 0 mm 2 m/s 761 mmHg 61%
    22:00 +25°C° 0 mm 2 m/s 760 mmHg 60%
    23:00 +24°C° 0 mm 2 m/s 760 mmHg 59%

    25 Agosto, Domingo

    Tempo Temperatura Precipitação Vento Pressão Humidade
    00:00 +24°C° 0 mm 3 m/s 760 mmHg 57%
    01:00 +24°C° 0 mm 2 m/s 760 mmHg 57%
    02:00 +24°C° 0 mm 2 m/s 760 mmHg 56%
    03:00 +24°C° 0 mm 2 m/s 759 mmHg 55%
    04:00 +24°C° 0 mm 2 m/s 759 mmHg 55%
    05:00 +24°C° 0 mm 2 m/s 759 mmHg 56%
    06:00 +24°C° 0 mm 2 m/s 760 mmHg 56%
    07:00 +27°C° 0 mm 2 m/s 760 mmHg 49%
    08:00 +29°C° 0 mm 2 m/s 760 mmHg 43%
    09:00 +32°C° 0 mm 2 m/s 760 mmHg 36%
    10:00 +34°C° 0 mm 2 m/s 760 mmHg 36%
    11:00 +34°C° 0 mm 3 m/s 760 mmHg 36%
    12:00 +35°C° 0 mm 3 m/s 760 mmHg 37%
    13:00 +34°C° 0 mm 3 m/s 760 mmHg 39%
    14:00 +34°C° 0 mm 3 m/s 759 mmHg 41%
    15:00 +33°C° 0 mm 3 m/s 759 mmHg 43%
    16:00 +31°C° 0 mm 3 m/s 759 mmHg 49%
    17:00 +29°C° 0 mm 2 m/s 759 mmHg 54%
    18:00 +28°C° 0 mm 2 m/s 759 mmHg 60%
    19:00 +27°C° 0 mm 1 m/s 759 mmHg 63%
    20:00 +26°C° 0 mm 1 m/s 760 mmHg 66%
    21:00 +24°C° 0 mm 1 m/s 760 mmHg 70%
    22:00 +24°C° 0 mm 1 m/s 760 mmHg 69%
    23:00 +24°C° 0 mm 1 m/s 760 mmHg 69%

    26 Agosto, Segunda-feira

    Tempo Temperatura Precipitação Vento Pressão Humidade
    00:00 +23°C° 0 mm 1 m/s 760 mmHg 68%
    01:00 +21°C° 0 mm 0 m/s 760 mmHg 68%
    02:00 +21°C° 0 mm 0 m/s 760 mmHg 68%
    03:00 +21°C° 0 mm 0 m/s 760 mmHg 68%
    04:00 +23°C° 0 mm 1 m/s 760 mmHg 67%
    05:00 +23°C° 0 mm 1 m/s 760 mmHg 67%
    06:00 +24°C° 0 mm 1 m/s 761 mmHg 66%
    07:00 +26°C° 0 mm 2 m/s 761 mmHg 58%
    08:00 +28°C° 0 mm 2 m/s 761 mmHg 51%
    09:00 +31°C° 0 mm 3 m/s 761 mmHg 43%
    10:00 +33°C° 0 mm 3 m/s 761 mmHg 41%
    11:00 +34°C° 0 mm 3 m/s 761 mmHg 39%
    12:00 +34°C° 0 mm 4 m/s 761 mmHg 37%
    13:00 +34°C° 0 mm 3 m/s 760 mmHg 38%
    14:00 +34°C° 0 mm 3 m/s 760 mmHg 39%
    15:00 +34°C° 0 mm 3 m/s 760 mmHg 39%
    16:00 +31°C° 0 mm 2 m/s 760 mmHg 47%
    17:00 +29°C° 0 mm 2 m/s 759 mmHg 54%
    18:00 +27°C° 0 mm 1 m/s 759 mmHg 62%
    19:00 +26°C° 0 mm 1 m/s 760 mmHg 64%
    20:00 +25°C° 0 mm 1 m/s 760 mmHg 67%
    21:00 +24°C° 0 mm 1 m/s 760 mmHg 69%
    22:00 +24°C° 0 mm 1 m/s 760 mmHg 68%
    23:00 +23°C° 0 mm 1 m/s 760 mmHg 67%

    27 Agosto, Terça-feira

    Tempo Temperatura Precipitação Vento Pressão Humidade
    00:00 +23°C° 0 mm 1 m/s 760 mmHg 66%
    01:00 +23°C° 0 mm 1 m/s 760 mmHg 66%
    02:00 +23°C° 0 mm 1 m/s 759 mmHg 65%
    03:00 +23°C° 0 mm 1 m/s 759 mmHg 65%
    04:00 +24°C° 0 mm 1 m/s 759 mmHg 65%
    05:00 +24°C° 0 mm 1 m/s 759 mmHg 65%
    06:00 +24°C° 0 mm 1 m/s 759 mmHg 65%
    07:00 +24°C° 0.5 mm 2 m/s 759 mmHg 70%
    08:00 +24°C° 0.5 mm 3 m/s 759 mmHg 75%
    09:00 +22°C° 0.5 mm 4 m/s 759 mmHg 80%
    10:00 +26°C° 0 mm 4 m/s 759 mmHg 67%
    11:00 +29°C° 0 mm 3 m/s 758 mmHg 55%
    12:00 +31°C° 0 mm 3 m/s 758 mmHg 42%
    13:00 +30°C° 0.1 mm 4 m/s 758 mmHg 47%
    14:00 +30°C° 0.1 mm 4 m/s 757 mmHg 53%
    15:00 +29°C° 0.1 mm 4 m/s 757 mmHg 58%
    16:00 +27°C° 1.1 mm 3 m/s 757 mmHg 66%
    17:00 +26°C° 1.1 mm 2 m/s 757 mmHg 74%
    18:00 +25°C° 1.1 mm 1 m/s 757 mmHg 82%
    19:00 +24°C° 0.3 mm 1 m/s 757 mmHg 84%
    20:00 +23°C° 0.3 mm 2 m/s 757 mmHg 85%
    21:00 +23°C° 0.3 mm 2 m/s 757 mmHg 87%
    22:00 +21°C° 0 mm 2 m/s 757 mmHg 88%
    23:00 +21°C° 0 mm 2 m/s 757 mmHg 89%
    Mostrar mais